Voltar ao catálogo

STARLINK-5559

AtivoComunicaçõesSSO
NORAD 56335·PAYLOAD·🇺🇸 United States

Lançado Apr 27, 2023 de Vandenberg Space Force Base

Loading…

Próximas Passagens (próximas 24 horas)

TLE

AtualizadoSource: CelesTrak SupGP

Época: Sep 15, 2026, 02:20 UTC

1 56335C 23058U   26258.09770833 -.00058269  00000+0 -18091-2 0  2580
2 56335  97.2848 254.9408 0001570  86.9846  65.1039 15.33463715    11

Acompanhe STARLINK-5559 em tempo real com AllMySat

Download on the App Store